| time (UTC) | temp F | wind direction | speed MPH | gust MPH | rain 1hr in | rain 24hr in | rain mn in | humidity % | barometer mb |
| 20260901000650 | 84 | 218 | 0.0 | 2.0 | 0.00 | 0.00 | 0.00 | 81 | 1007.4 |
| 20260901000145 | 84 | 217 | 0.0 | 3.0 | 0.00 | 0.00 | 0.00 | 81 | 1007.4 |
| 20260831235638 | 84 | 195 | 0.0 | 3.0 | 0.00 | 0.00 | 0.00 | 81 | 1007.3 |
| 20260831235134 | 85 | 208 | 2.0 | 2.0 | 0.00 | 0.00 | 0.00 | 79 | 1007.3 |
| 20260831234633 | 85 | 165 | 0.0 | 2.0 | 0.00 | 0.00 | 0.00 | 79 | 1007.4 |
| 20260831234129 | 85 | 164 | 2.0 | 3.0 | 0.00 | 0.00 | 0.00 | 78 | 1007.4 |
| 20260831233624 | 86 | 205 | 1.0 | 2.0 | 0.00 | 0.00 | 0.00 | 75 | 1007.4 |
| 20260831233119 | 86 | 183 | 2.0 | 3.0 | 0.00 | 0.00 | 0.00 | 75 | 1007.2 |
| 20260831232614 | 86 | 257 | 0.0 | 2.0 | 0.00 | 0.00 | 0.00 | 75 | 1007.3 |
| 20260831232110 | 87 | 199 | 1.0 | 3.0 | 0.00 | 0.00 | 0.00 | 75 | 1007.1 |
| 20260831231606 | 87 | 184 | 0.0 | 2.0 | 0.00 | 0.00 | 0.00 | 75 | 1007.2 |
| 20260831231102 | 87 | 212 | 1.0 | 2.0 | 0.00 | 0.00 | 0.00 | 73 | 1007.1 |
| 20260831230558 | 89 | 185 | 0.0 | 2.0 | 0.00 | 0.00 | 0.00 | 70 | 1007.5 |
| 20260831230057 | 89 | 233 | 1.0 | 3.0 | 0.00 | 0.00 | 0.00 | 70 | 1007.3 |
| 20260831225553 | 88 | 272 | 1.0 | 3.0 | 0.00 | 0.00 | 0.00 | 74 | 1007.1 |
| 20260831225047 | 88 | 242 | 1.0 | 5.0 | 0.00 | 0.00 | 0.00 | 74 | 1007.4 |
| 20260831224542 | 88 | 215 | 1.0 | 3.0 | 0.00 | 0.00 | 0.00 | 74 | 1007.1 |
| 20260831224038 | 87 | 205 | 1.0 | 6.0 | 0.00 | 0.00 | 0.00 | 78 | 1007.1 |
| 20260831223533 | 87 | 149 | 1.0 | 6.0 | 0.00 | 0.00 | 0.00 | 76 | 1007.2 |
| 20260831223029 | 89 | 200 | 1.0 | 4.0 | 0.00 | 0.00 | 0.00 | 75 | 1007.1 |
| 20260831222525 | 89 | 219 | 1.0 | 3.0 | 0.00 | 0.00 | 0.00 | 75 | 1007.0 |
| 20260831222025 | 87 | 181 | 1.0 | 3.0 | 0.00 | 0.00 | 0.00 | 77 | 1007.0 |
| 20260831221521 | 89 | 184 | 2.0 | 5.0 | 0.00 | 0.00 | 0.00 | 74 | 1007.0 |
| 20260831221015 | 90 | 144 | 2.0 | 3.0 | 0.00 | 0.00 | 0.00 | 73 | 1007.0 |
| 20260831220511 | 89 | 218 | 0.0 | 4.0 | 0.00 | 0.00 | 0.00 | 74 | 1007.0 |
| 20260831220007 | 90 | 339 | 3.0 | 6.0 | 0.00 | 0.00 | 0.00 | 73 | 1007.0 |
| 20260831215502 | 90 | 205 | 3.0 | 6.0 | 0.00 | 0.00 | 0.00 | 74 | 1007.0 |
| 20260831214958 | 89 | 227 | 0.0 | 3.0 | 0.00 | 0.00 | 0.00 | 74 | 1006.9 |
| 20260831214455 | 91 | 174 | 0.0 | 4.0 | 0.00 | 0.00 | 0.00 | 71 | 1006.9 |
| 20260831213950 | 91 | 236 | 1.0 | 3.0 | 0.00 | 0.00 | 0.00 | 72 | 1006.7 |
| 20260831213447 | 91 | 185 | 2.0 | 2.0 | 0.00 | 0.00 | 0.00 | 72 | 1006.8 |
| 20260831212947 | 90 | 281 | 1.0 | 4.0 | 0.00 | 0.00 | 0.00 | 73 | 1006.8 |
| 20260831212443 | 88 | 190 | 2.0 | 3.0 | 0.00 | 0.00 | 0.00 | 76 | 1006.7 |
| 20260831211942 | 87 | 193 | 2.0 | 7.0 | 0.00 | 0.00 | 0.00 | 77 | 1006.9 |
| 20260831211437 | 89 | 210 | 2.0 | 5.0 | 0.00 | 0.00 | 0.00 | 75 | 1007.0 |
| 20260831210931 | 88 | 236 | 0.0 | 2.0 | 0.00 | 0.00 | 0.00 | 77 | 1006.8 |
| 20260831210427 | 87 | 189 | 1.0 | 3.0 | 0.00 | 0.00 | 0.00 | 79 | 1006.7 |
| 20260831205923 | 86 | 211 | 2.0 | 3.0 | 0.00 | 0.00 | 0.00 | 78 | 1006.7 |
| 20260831205419 | 86 | 235 | 0.0 | 3.0 | 0.00 | 0.00 | 0.00 | 78 | 1006.7 |
| 20260831204918 | 86 | 229 | 1.0 | 2.0 | 0.00 | 0.00 | 0.00 | 79 | 1006.7 |
| 20260831204418 | 86 | 179 | 1.0 | 2.0 | 0.00 | 0.00 | 0.00 | 80 | 1006.6 |
| 20260831203912 | 85 | 62 | 0.0 | 2.0 | 0.00 | 0.00 | 0.00 | 80 | 1006.7 |
| 20260831203407 | 86 | 37 | 0.0 | 3.0 | 0.00 | 0.00 | 0.00 | 78 | 1006.6 |
| 20260831202904 | 86 | 136 | 1.0 | 3.0 | 0.00 | 0.00 | 0.00 | 80 | 1006.6 |
| 20260831202359 | 84 | 25 | 0.0 | 2.0 | 0.00 | 0.00 | 0.00 | 81 | 1006.8 |
| 20260831201854 | 84 | 336 | 2.0 | 3.0 | 0.00 | 0.00 | 0.00 | 81 | 1006.7 |
| 20260831201353 | 84 | 356 | 1.0 | 3.0 | 0.00 | 0.00 | 0.00 | 81 | 1006.7 |
| 20260831200849 | 85 | 32 | 2.0 | 3.0 | 0.00 | 0.00 | 0.00 | 81 | 1006.5 |
| 20260831200343 | 85 | 15 | 2.0 | 3.0 | 0.00 | 0.00 | 0.00 | 81 | 1006.6 |
| 20260831195839 | 84 | 14 | 3.0 | 5.0 | 0.00 | 0.00 | 0.00 | 81 | 1006.3 |
| 20260831195334 | 84 | 46 | 2.0 | 4.0 | 0.00 | 0.00 | 0.00 | 82 | 1006.3 |
| 20260831194830 | 84 | 340 | 0.0 | 4.0 | 0.00 | 0.00 | 0.00 | 82 | 1006.4 |
| 20260831194325 | 84 | 333 | 0.0 | 3.0 | 0.00 | 0.00 | 0.00 | 82 | 1006.3 |
| 20260831193824 | 84 | 17 | 2.0 | 4.0 | 0.00 | 0.00 | 0.00 | 81 | 1006.4 |
| 20260831193319 | 84 | 327 | 1.0 | 3.0 | 0.00 | 0.00 | 0.00 | 81 | 1006.5 |
| 20260831192815 | 84 | 309 | 0.0 | 4.0 | 0.00 | 0.00 | 0.00 | 80 | 1006.6 |
| 20260831192309 | 84 | 256 | 0.0 | 2.0 | 0.00 | 0.00 | 0.00 | 80 | 1006.7 |
| 20260831191805 | 84 | 233 | 0.0 | 5.0 | 0.00 | 0.00 | 0.00 | 81 | 1006.7 |
| 20260831191301 | 84 | 104 | 0.0 | 5.0 | 0.00 | 0.00 | 0.00 | 81 | 1006.8 |
| 20260831190756 | 84 | 188 | 1.0 | 5.0 | 0.00 | 0.00 | 0.00 | 81 | 1006.7 |
| 20260831190250 | 85 | 318 | 2.0 | 4.0 | 0.00 | 0.00 | 0.00 | 80 | 1006.8 |
| 20260831185750 | 85 | 316 | 1.0 | 4.0 | 0.00 | 0.00 | 0.00 | 79 | 1006.6 |
| 20260831185246 | 85 | 24 | 3.0 | 5.0 | 0.00 | 0.00 | 0.00 | 79 | 1006.6 |
| 20260831184745 | 86 | 325 | 3.0 | 5.0 | 0.00 | 0.00 | 0.00 | 78 | 1006.5 |
| 20260831184241 | 86 | 329 | 2.0 | 6.0 | 0.00 | 0.00 | 0.00 | 77 | 1006.2 |
| 20260831183741 | 86 | 184 | 1.0 | 5.0 | 0.00 | 0.00 | 0.00 | 77 | 1006.4 |
| 20260831183236 | 87 | 28 | 2.0 | 4.0 | 0.00 | 0.00 | 0.00 | 74 | 1006.5 |
| 20260831182734 | 87 | 250 | 2.0 | 4.0 | 0.00 | 0.00 | 0.00 | 74 | 1006.5 |
| 20260831182230 | 87 | 142 | 0.0 | 3.0 | 0.00 | 0.00 | 0.00 | 74 | 1006.5 |
| 20260831181730 | 87 | 151 | 0.0 | 3.0 | 0.00 | 0.00 | 0.00 | 74 | 1006.4 |
| 20260831181226 | 88 | 210 | 2.0 | 4.0 | 0.00 | 0.00 | 0.00 | 70 | 1006.3 |
| 20260831180720 | 89 | 159 | 0.0 | 3.0 | 0.00 | 0.00 | 0.00 | 71 | 1006.4 |
| 20260831180220 | 89 | 154 | 1.0 | 3.0 | 0.00 | 0.00 | 0.00 | 71 | 1006.5 |
| 20260831175719 | 89 | 221 | 2.0 | 3.0 | 0.00 | 0.00 | 0.00 | 71 | 1006.4 |
| 20260831175217 | 89 | 324 | 3.0 | 4.0 | 0.00 | 0.00 | 0.00 | 70 | 1006.5 |
| 20260831174716 | 89 | 222 | 2.0 | 5.0 | 0.00 | 0.00 | 0.00 | 70 | 1006.6 |
| 20260831174212 | 87 | 202 | 2.0 | 4.0 | 0.00 | 0.00 | 0.00 | 74 | 1006.5 |
| 20260831173711 | 88 | 163 | 1.0 | 4.0 | 0.00 | 0.00 | 0.00 | 73 | 1006.8 |
| 20260831173206 | 88 | 201 | 2.0 | 5.0 | 0.00 | 0.00 | 0.00 | 73 | 1007.0 |
| 20260831172706 | 88 | 160 | 1.0 | 3.0 | 0.00 | 0.00 | 0.00 | 74 | 1006.9 |
| 20260831172202 | 87 | 162 | 4.0 | 7.0 | 0.00 | 0.00 | 0.00 | 73 | 1006.9 |
| 20260831171656 | 87 | 98 | 2.0 | 3.0 | 0.00 | 0.00 | 0.00 | 73 | 1007.0 |
| 20260831171154 | 86 | 205 | 2.0 | 5.0 | 0.00 | 0.00 | 0.00 | 76 | 1006.9 |
| 20260831170650 | 86 | 188 | 2.0 | 3.0 | 0.00 | 0.00 | 0.00 | 79 | 1007.2 |
| 20260831170147 | 85 | 174 | 1.0 | 3.0 | 0.00 | 0.00 | 0.00 | 78 | 1007.1 |
| 20260831165642 | 85 | 192 | 2.0 | 3.0 | 0.00 | 0.00 | 0.00 | 78 | 1007.2 |
| 20260831165139 | 84 | 214 | 3.0 | 4.0 | 0.00 | 0.00 | 0.00 | 79 | 1007.0 |
| 20260831164634 | 84 | 245 | 3.0 | 7.0 | 0.00 | 0.00 | 0.00 | 79 | 1006.7 |
| 20260831164130 | 84 | 167 | 1.0 | 5.0 | 0.00 | 0.00 | 0.00 | 82 | 1007.0 |
| 20260831163625 | 84 | 209 | 2.0 | 3.0 | 0.00 | 0.00 | 0.00 | 80 | 1006.9 |
| 20260831163121 | 84 | 208 | 1.0 | 3.0 | 0.00 | 0.00 | 0.00 | 81 | 1006.9 |
| 20260831162620 | 84 | 349 | 1.0 | 5.0 | 0.00 | 0.00 | 0.00 | 80 | 1006.6 |
| 20260831162117 | 84 | 128 | 1.0 | 5.0 | 0.00 | 0.00 | 0.00 | 78 | 1006.8 |
| 20260831161614 | 85 | 191 | 2.0 | 4.0 | 0.00 | 0.00 | 0.00 | 77 | 1006.7 |
| 20260831161110 | 85 | 209 | 2.0 | 5.0 | 0.00 | 0.00 | 0.00 | 79 | 1006.5 |
| 20260831160609 | 84 | 182 | 2.0 | 5.0 | 0.00 | 0.00 | 0.00 | 78 | 1006.6 |
| 20260831160105 | 84 | 151 | 0.0 | 3.0 | 0.00 | 0.00 | 0.00 | 79 | 1006.6 |
| 20260831155559 | 84 | 180 | 2.0 | 5.0 | 0.00 | 0.00 | 0.00 | 80 | 1006.7 |
| 20260831155054 | 84 | 221 | 0.0 | 4.0 | 0.00 | 0.00 | 0.00 | 79 | 1006.6 |
| 20260831154550 | 84 | 243 | 1.0 | 3.0 | 0.00 | 0.00 | 0.00 | 78 | 1006.6 |
| 20260831154044 | 84 | 219 | 2.0 | 5.0 | 0.00 | 0.00 | 0.00 | 80 | 1006.4 |
| 20260831153544 | 83 | 257 | 0.0 | 5.0 | 0.00 | 0.00 | 0.00 | 80 | 1006.3 |
| 20260831153041 | 83 | 228 | 2.0 | 4.0 | 0.00 | 0.00 | 0.00 | 81 | 1006.3 |
| 20260831152536 | 82 | 206 | 1.0 | 5.0 | 0.00 | 0.00 | 0.00 | 81 | 1006.2 |
| 20260831152032 | 82 | 227 | 1.0 | 4.0 | 0.00 | 0.00 | 0.00 | 81 | 1006.1 |
| 20260831151525 | 83 | 203 | 1.0 | 3.0 | 0.00 | 0.00 | 0.00 | 81 | 1006.0 |
| 20260831151025 | 83 | 180 | 0.0 | 3.0 | 0.00 | 0.00 | 0.00 | 82 | 1006.1 |
| 20260831150520 | 82 | 175 | 0.0 | 3.0 | 0.00 | 0.00 | 0.00 | 81 | 1005.8 |
| 20260831150016 | 82 | 335 | 0.0 | 4.0 | 0.00 | 0.00 | 0.00 | 81 | 1005.9 |
| 20260831145510 | 82 | 19 | 0.0 | 3.0 | 0.00 | 0.00 | 0.00 | 84 | 1005.9 |
| 20260831145006 | 81 | 254 | 1.0 | 3.0 | 0.00 | 0.00 | 0.00 | 83 | 1005.7 |
| 20260831144502 | 82 | 119 | 3.0 | 5.0 | 0.00 | 0.00 | 0.00 | 82 | 1006.0 |
| 20260831143957 | 82 | 154 | 2.0 | 3.0 | 0.00 | 0.00 | 0.00 | 82 | 1005.8 |
| 20260831143446 | 81 | 255 | 0.0 | 4.0 | 0.00 | 0.00 | 0.00 | 84 | 1005.8 |
| 20260831142942 | 80 | 182 | 2.0 | 4.0 | 0.00 | 0.00 | 0.00 | 86 | 1006.0 |
| 20260831142438 | 81 | 221 | 2.0 | 4.0 | 0.00 | 0.00 | 0.00 | 83 | 1005.9 |
| 20260831141932 | 81 | 146 | 0.0 | 3.0 | 0.00 | 0.00 | 0.00 | 83 | 1005.5 |
| 20260831141426 | 81 | 158 | 1.0 | 3.0 | 0.00 | 0.00 | 0.00 | 83 | 1005.5 |
| 20260831140921 | 81 | 1 | 0.0 | 5.0 | 0.00 | 0.00 | 0.00 | 83 | 1005.8 |
| 20260831140415 | 80 | 164 | 0.0 | 4.0 | 0.00 | 0.00 | 0.00 | 85 | 1005.5 |
| 20260831135914 | 80 | 222 | 2.0 | 8.0 | 0.00 | 0.00 | 0.00 | 85 | 1005.5 |
| 20260831135409 | 80 | 81 | 1.0 | 3.0 | 0.00 | 0.00 | 0.00 | 86 | 1005.7 |
| 20260831134904 | 79 | 223 | 3.0 | 6.0 | 0.00 | 0.00 | 0.00 | 86 | 1005.5 |
| 20260831134400 | 79 | 343 | 0.0 | 4.0 | 0.00 | 0.00 | 0.00 | 86 | 1005.5 |
| 20260831133859 | 78 | 293 | 1.0 | 3.0 | 0.00 | 0.00 | 0.00 | 87 | 1005.4 |
| 20260831133354 | 78 | 230 | 2.0 | 5.0 | 0.00 | 0.00 | 0.00 | 88 | 1005.4 |
| 20260831132849 | 77 | 254 | 2.0 | 5.0 | 0.00 | 0.00 | 0.00 | 90 | 1005.4 |
| 20260831132339 | 76 | 228 | 2.0 | 3.0 | 0.00 | 0.00 | 0.00 | 90 | 1005.1 |
| 20260831131838 | 76 | 221 | 2.0 | 4.0 | 0.00 | 0.00 | 0.00 | 91 | 1005.0 |
| 20260831131334 | 76 | 217 | 1.0 | 3.0 | 0.00 | 0.00 | 0.00 | 91 | 1005.1 |
| 20260831130829 | 75 | 209 | 0.0 | 3.0 | 0.00 | 0.00 | 0.00 | 92 | 1005.1 |
| 20260831130325 | 75 | 243 | 2.0 | 3.0 | 0.00 | 0.00 | 0.00 | 92 | 1005.1 |
| 20260831125824 | 74 | 229 | 1.0 | 3.0 | 0.00 | 0.00 | 0.00 | 93 | 1004.9 |
| 20260831125320 | 73 | 24 | 0.0 | 2.0 | 0.00 | 0.00 | 0.00 | 95 | 1005.0 |
| 20260831124819 | 73 | 202 | 3.0 | 5.0 | 0.00 | 0.00 | 0.00 | 95 | 1004.9 |
| 20260831124316 | 72 | 191 | 2.0 | 4.0 | 0.00 | 0.00 | 0.00 | 96 | 1005.0 |
| 20260831123815 | 72 | 210 | 3.0 | 6.0 | 0.00 | 0.00 | 0.00 | 97 | 1004.8 |
| 20260831123314 | 72 | 217 | 3.0 | 4.0 | 0.00 | 0.00 | 0.00 | 97 | 1004.7 |
| 20260831122809 | 71 | 211 | 3.0 | 5.0 | 0.00 | 0.00 | 0.00 | 98 | 1004.7 |
| 20260831122306 | 71 | 202 | 2.0 | 5.0 | 0.00 | 0.00 | 0.00 | 98 | 1004.6 |
| 20260831121759 | 71 | 193 | 4.0 | 5.0 | 0.00 | 0.00 | 0.00 | 98 | 1004.6 |
| 20260831121255 | 71 | 216 | 3.0 | 5.0 | 0.00 | 0.00 | 0.00 | 98 | 1004.6 |
| 20260831120750 | 71 | 210 | 3.0 | 3.0 | 0.00 | 0.00 | 0.00 | 99 | 1004.6 |
| 20260831120245 | 71 | 193 | 1.0 | 2.0 | 0.00 | 0.00 | 0.00 | 98 | 1004.5 |
| 20260831115740 | 71 | 243 | 0.0 | 3.0 | 0.00 | 0.00 | 0.00 | 99 | 1004.5 |
| 20260831115236 | 71 | 297 | 0.0 | 2.0 | 0.00 | 0.00 | 0.00 | 99 | 1004.5 |
| 20260831114735 | 71 | 216 | 2.0 | 3.0 | 0.00 | 0.00 | 0.00 | 99 | 1004.1 |
| 20260831114235 | 71 | 217 | 2.0 | 3.0 | 0.00 | 0.00 | 0.00 | 99 | 1004.3 |
| 20260831113730 | 71 | 209 | 3.0 | 4.0 | 0.00 | 0.00 | 0.00 | 99 | 1004.1 |
| 20260831113224 | 71 | 213 | 1.0 | 4.0 | 0.00 | 0.00 | 0.00 | 98 | 1004.3 |
| 20260831112718 | 71 | 208 | 3.0 | 5.0 | 0.00 | 0.00 | 0.00 | 99 | 1004.2 |
| 20260831112214 | 71 | 201 | 3.0 | 5.0 | 0.00 | 0.00 | 0.00 | 98 | 1004.2 |
| 20260831111709 | 71 | 209 | 3.0 | 5.0 | 0.00 | 0.00 | 0.00 | 98 | 1004.4 |
| 20260831111206 | 71 | 206 | 3.0 | 5.0 | 0.00 | 0.00 | 0.00 | 98 | 1004.4 |
| 20260831110701 | 71 | 210 | 2.0 | 5.0 | 0.00 | 0.00 | 0.00 | 98 | 1004.4 |
| 20260831110156 | 71 | 187 | 3.0 | 4.0 | 0.00 | 0.00 | 0.00 | 98 | 1004.3 |
| 20260831105655 | 71 | 189 | 2.0 | 5.0 | 0.00 | 0.00 | 0.00 | 98 | 1004.2 |
| 20260831105151 | 71 | 210 | 2.0 | 4.0 | 0.00 | 0.00 | 0.00 | 98 | 1004.3 |
| 20260831104645 | 71 | 221 | 2.0 | 6.0 | 0.00 | 0.00 | 0.00 | 97 | 1004.2 |
| 20260831104142 | 72 | 210 | 3.0 | 5.0 | 0.00 | 0.00 | 0.00 | 98 | 1004.2 |
| 20260831103636 | 71 | 221 | 3.0 | 5.0 | 0.00 | 0.00 | 0.00 | 98 | 1004.5 |
| 20260831103133 | 72 | 219 | 3.0 | 7.0 | 0.00 | 0.00 | 0.00 | 98 | 1004.3 |
| 20260831102632 | 71 | 206 | 3.0 | 6.0 | 0.00 | 0.00 | 0.00 | 98 | 1004.3 |
| 20260831102132 | 72 | 197 | 3.0 | 8.0 | 0.00 | 0.00 | 0.00 | 98 | 1004.3 |
| 20260831101633 | 71 | 220 | 4.0 | 7.0 | 0.00 | 0.00 | 0.00 | 98 | 1004.1 |
| 20260831101128 | 71 | 228 | 6.0 | 8.0 | 0.00 | 0.00 | 0.00 | 98 | 1004.3 |
| 20260831100624 | 71 | 206 | 5.0 | 8.0 | 0.00 | 0.00 | 0.00 | 98 | 1004.3 |
| 20260831100120 | 71 | 198 | 4.0 | 8.0 | 0.00 | 0.00 | 0.00 | 98 | 1004.2 |
| 20260831095618 | 71 | 214 | 5.0 | 6.0 | 0.00 | 0.00 | 0.00 | 99 | 1004.1 |
| 20260831095113 | 71 | 223 | 4.0 | 7.0 | 0.00 | 0.00 | 0.00 | 99 | 1004.5 |
| 20260831094609 | 71 | 200 | 4.0 | 6.0 | 0.00 | 0.00 | 0.00 | 99 | 1004.3 |
| 20260831094105 | 71 | 193 | 6.0 | 7.0 | 0.00 | 0.00 | 0.00 | 98 | 1004.5 |
| 20260831093600 | 71 | 207 | 3.0 | 8.0 | 0.00 | 0.00 | 0.00 | 98 | 1004.2 |
| 20260831093056 | 71 | 208 | 4.0 | 6.0 | 0.00 | 0.00 | 0.00 | 98 | 1004.2 |
| 20260831092552 | 71 | 209 | 4.0 | 5.0 | 0.00 | 0.00 | 0.00 | 98 | 1004.3 |
| 20260831092048 | 71 | 202 | 3.0 | 6.0 | 0.00 | 0.00 | 0.00 | 98 | 1004.2 |
| 20260831091548 | 71 | 202 | 6.0 | 8.0 | 0.00 | 0.00 | 0.00 | 98 | 1004.5 |
| 20260831091043 | 71 | 216 | 5.0 | 6.0 | 0.00 | 0.00 | 0.00 | 98 | 1004.3 |
| 20260831090538 | 71 | 211 | 3.0 | 7.0 | 0.00 | 0.00 | 0.00 | 98 | 1004.2 |
| 20260831090029 | 71 | 214 | 5.0 | 7.0 | 0.00 | 0.00 | 0.00 | 99 | 1004.4 |
| 20260831085524 | 71 | 204 | 3.0 | 6.0 | 0.00 | 0.00 | 0.00 | 99 | 1004.3 |
| 20260831085019 | 71 | 196 | 3.0 | 8.0 | 0.00 | 0.00 | 0.00 | 99 | 1004.3 |
| 20260831084515 | 71 | 209 | 4.0 | 7.0 | 0.00 | 0.00 | 0.00 | 99 | 1004.4 |
| 20260831084011 | 71 | 209 | 5.0 | 7.0 | 0.00 | 0.00 | 0.00 | 99 | 1004.3 |
| 20260831083506 | 71 | 203 | 4.0 | 6.0 | 0.00 | 0.00 | 0.00 | 99 | 1004.3 |
| 20260831083006 | 71 | 202 | 3.0 | 7.0 | 0.00 | 0.00 | 0.00 | 99 | 1004.3 |
| 20260831082500 | 71 | 194 | 3.0 | 6.0 | 0.00 | 0.00 | 0.00 | 99 | 1004.3 |
| 20260831081954 | 71 | 198 | 5.0 | 8.0 | 0.00 | 0.00 | 0.00 | 99 | 1004.3 |
| 20260831081450 | 71 | 190 | 3.0 | 5.0 | 0.00 | 0.00 | 0.00 | 99 | 1004.0 |
| 20260831080946 | 71 | 204 | 4.0 | 6.0 | 0.00 | 0.00 | 0.00 | 99 | 1004.3 |
| 20260831080440 | 71 | 215 | 5.0 | 7.0 | 0.00 | 0.00 | 0.00 | 99 | 1004.2 |
| 20260831075935 | 71 | 209 | 5.0 | 5.0 | 0.00 | 0.00 | 0.00 | 99 | 1004.6 |
| 20260831075431 | 71 | 198 | 3.0 | 6.0 | 0.00 | 0.00 | 0.00 | 98 | 1004.3 |
| 20260831074927 | 71 | 189 | 3.0 | 5.0 | 0.00 | 0.00 | 0.00 | 98 | 1004.5 |
| 20260831074421 | 71 | 192 | 3.0 | 4.0 | 0.00 | 0.00 | 0.00 | 98 | 1004.5 |
| 20260831073915 | 71 | 216 | 2.0 | 7.0 | 0.00 | 0.00 | 0.00 | 98 | 1004.5 |
| 20260831073415 | 71 | 212 | 3.0 | 7.0 | 0.00 | 0.00 | 0.00 | 98 | 1004.6 |
| 20260831072910 | 71 | 217 | 3.0 | 7.0 | 0.00 | 0.00 | 0.00 | 98 | 1004.5 |
| 20260831072405 | 71 | 205 | 2.0 | 7.0 | 0.00 | 0.00 | 0.00 | 97 | 1004.4 |
| 20260831071902 | 71 | 213 | 4.0 | 8.0 | 0.00 | 0.00 | 0.00 | 97 | 1004.5 |
| 20260831071400 | 71 | 194 | 3.0 | 6.0 | 0.00 | 0.00 | 0.00 | 97 | 1004.6 |
| 20260831070855 | 71 | 211 | 5.0 | 6.0 | 0.00 | 0.00 | 0.00 | 97 | 1004.5 |
| 20260831070354 | 72 | 221 | 3.0 | 5.0 | 0.00 | 0.00 | 0.00 | 96 | 1004.7 |
| 20260831065854 | 72 | 208 | 3.0 | 7.0 | 0.00 | 0.00 | 0.00 | 96 | 1004.9 |
| 20260831065351 | 72 | 205 | 3.0 | 5.0 | 0.00 | 0.00 | 0.00 | 96 | 1004.7 |
| 20260831064847 | 72 | 215 | 4.0 | 5.0 | 0.00 | 0.00 | 0.00 | 96 | 1004.8 |
| 20260831064342 | 72 | 183 | 3.0 | 7.0 | 0.00 | 0.00 | 0.00 | 95 | 1004.8 |
| 20260831063837 | 72 | 208 | 6.0 | 7.0 | 0.00 | 0.00 | 0.00 | 95 | 1004.9 |
| 20260831063332 | 72 | 205 | 4.0 | 6.0 | 0.00 | 0.00 | 0.00 | 95 | 1004.9 |
| 20260831062827 | 72 | 215 | 8.0 | 8.0 | 0.00 | 0.00 | 0.00 | 95 | 1004.9 |
| 20260831062322 | 72 | 187 | 3.0 | 5.0 | 0.00 | 0.00 | 0.00 | 95 | 1005.1 |
| 20260831061820 | 72 | 193 | 2.0 | 7.0 | 0.00 | 0.00 | 0.00 | 94 | 1005.0 |
| 20260831061314 | 72 | 188 | 3.0 | 5.0 | 0.00 | 0.00 | 0.00 | 94 | 1004.9 |
| 20260831060810 | 72 | 205 | 3.0 | 6.0 | 0.00 | 0.00 | 0.00 | 94 | 1005.4 |
| 20260831060305 | 72 | 217 | 6.0 | 7.0 | 0.00 | 0.00 | 0.00 | 94 | 1005.1 |
| 20260831055804 | 72 | 204 | 4.0 | 7.0 | 0.00 | 0.00 | 0.00 | 94 | 1005.0 |
| 20260831055259 | 72 | 195 | 3.0 | 7.0 | 0.00 | 0.00 | 0.00 | 93 | 1005.4 |
| 20260831054754 | 72 | 191 | 3.0 | 5.0 | 0.00 | 0.00 | 0.00 | 93 | 1005.4 |
| 20260831054249 | 72 | 215 | 3.0 | 6.0 | 0.00 | 0.00 | 0.00 | 93 | 1005.4 |
| 20260831053748 | 72 | 194 | 3.0 | 5.0 | 0.00 | 0.00 | 0.00 | 93 | 1005.5 |
| 20260831053247 | 72 | 207 | 3.0 | 6.0 | 0.00 | 0.00 | 0.00 | 93 | 1005.5 |
| 20260831052742 | 72 | 186 | 4.0 | 6.0 | 0.00 | 0.00 | 0.00 | 93 | 1005.4 |
| 20260831052241 | 72 | 205 | 3.0 | 5.0 | 0.00 | 0.00 | 0.00 | 93 | 1005.7 |
| 20260831051738 | 72 | 216 | 4.0 | 4.0 | 0.00 | 0.00 | 0.00 | 93 | 1005.7 |
| 20260831051232 | 73 | 191 | 2.0 | 4.0 | 0.00 | 0.00 | 0.00 | 92 | 1005.7 |
| 20260831050727 | 73 | 207 | 3.0 | 7.0 | 0.00 | 0.00 | 0.00 | 92 | 1005.7 |
| 20260831050226 | 72 | 200 | 3.0 | 7.0 | 0.00 | 0.00 | 0.00 | 92 | 1005.6 |
| 20260831045721 | 72 | 197 | 3.0 | 7.0 | 0.00 | 0.00 | 0.00 | 92 | 1005.5 |
| 20260831045215 | 72 | 204 | 4.0 | 6.0 | 0.00 | 0.00 | 0.00 | 92 | 1005.7 |
| 20260831044710 | 72 | 197 | 1.0 | 6.0 | 0.00 | 0.00 | 0.00 | 92 | 1005.7 |
| 20260831044205 | 72 | 205 | 4.0 | 7.0 | 0.00 | 0.00 | 0.00 | 92 | 1005.7 |
| 20260831043701 | 72 | 214 | 5.0 | 6.0 | 0.00 | 0.00 | 0.00 | 92 | 1005.6 |
| 20260831043156 | 72 | 202 | 2.0 | 7.0 | 0.00 | 0.00 | 0.00 | 92 | 1005.8 |
| 20260831042655 | 72 | 208 | 3.0 | 6.0 | 0.00 | 0.00 | 0.00 | 92 | 1005.8 |
| 20260831042150 | 72 | 200 | 5.0 | 5.0 | 0.00 | 0.00 | 0.00 | 92 | 1005.7 |
| 20260831041645 | 72 | 207 | 4.0 | 8.0 | 0.00 | 0.00 | 0.00 | 92 | 1005.8 |
| 20260831041144 | 72 | 184 | 2.0 | 5.0 | 0.00 | 0.00 | 0.00 | 91 | 1005.8 |
| 20260831040640 | 72 | 211 | 5.0 | 7.0 | 0.00 | 0.00 | 0.00 | 91 | 1005.8 |
| 20260831040138 | 72 | 203 | 8.0 | 11.0 | 0.00 | 0.00 | 0.00 | 91 | 1005.5 |
| 20260831035637 | 72 | 203 | 4.0 | 6.0 | 0.00 | 0.00 | 0.00 | 91 | 1005.6 |
| 20260831035132 | 72 | 207 | 5.0 | 10.0 | 0.00 | 0.00 | 0.00 | 91 | 1005.6 |
| 20260831034631 | 72 | 206 | 4.0 | 6.0 | 0.00 | 0.00 | 0.00 | 91 | 1005.7 |
| 20260831034126 | 72 | 204 | 4.0 | 6.0 | 0.00 | 0.00 | 0.00 | 91 | 1005.8 |
| 20260831033622 | 73 | 204 | 3.0 | 7.0 | 0.00 | 0.00 | 0.00 | 90 | 1006.0 |
| 20260831033117 | 73 | 189 | 3.0 | 5.0 | 0.00 | 0.00 | 0.00 | 90 | 1006.2 |
| 20260831032616 | 73 | 161 | 2.0 | 7.0 | 0.00 | 0.00 | 0.00 | 90 | 1006.1 |
| 20260831032112 | 73 | 180 | 3.0 | 5.0 | 0.00 | 0.00 | 0.00 | 90 | 1006.3 |
| 20260831031607 | 73 | 211 | 3.0 | 4.0 | 0.00 | 0.00 | 0.00 | 91 | 1006.3 |
| 20260831031106 | 73 | 166 | 0.0 | 4.0 | 0.00 | 0.00 | 0.00 | 91 | 1006.4 |
| 20260831030605 | 73 | 191 | 1.0 | 3.0 | 0.00 | 0.00 | 0.00 | 91 | 1006.4 |
| 20260831030104 | 73 | 160 | 0.0 | 3.0 | 0.00 | 0.00 | 0.00 | 90 | 1006.4 |
| 20260831025603 | 73 | 182 | 1.0 | 4.0 | 0.00 | 0.00 | 0.00 | 90 | 1006.2 |
| 20260831025058 | 73 | 185 | 2.0 | 5.0 | 0.00 | 0.00 | 0.00 | 89 | 1006.3 |
| 20260831024554 | 73 | 185 | 2.0 | 4.0 | 0.00 | 0.00 | 0.00 | 89 | 1006.5 |
| 20260831024053 | 73 | 183 | 3.0 | 6.0 | 0.00 | 0.00 | 0.00 | 89 | 1006.6 |
| 20260831023551 | 73 | 207 | 4.0 | 5.0 | 0.00 | 0.00 | 0.00 | 89 | 1006.5 |
| 20260831023050 | 73 | 203 | 2.0 | 7.0 | 0.00 | 0.00 | 0.00 | 89 | 1006.4 |
| 20260831022545 | 73 | 176 | 2.0 | 5.0 | 0.00 | 0.00 | 0.00 | 89 | 1006.5 |
| 20260831022041 | 74 | 192 | 3.0 | 7.0 | 0.00 | 0.00 | 0.00 | 88 | 1006.6 |
| 20260831021538 | 74 | 216 | 2.0 | 12.0 | 0.00 | 0.00 | 0.00 | 88 | 1006.6 |
| 20260831021030 | 74 | 219 | 5.0 | 9.0 | 0.00 | 0.00 | 0.00 | 88 | 1006.5 |
| 20260831020525 | 74 | 219 | 4.0 | 8.0 | 0.00 | 0.00 | 0.00 | 88 | 1006.5 |
| 20260831020019 | 74 | 212 | 3.0 | 7.0 | 0.00 | 0.00 | 0.00 | 88 | 1006.3 |
| 20260831015514 | 74 | 172 | 4.0 | 9.0 | 0.00 | 0.00 | 0.00 | 88 | 1006.5 |
| 20260831015004 | 74 | 207 | 7.0 | 7.0 | 0.00 | 0.00 | 0.00 | 88 | 1006.3 |
| 20260831014458 | 74 | 209 | 5.0 | 8.0 | 0.00 | 0.00 | 0.00 | 88 | 1006.4 |
| 20260831013954 | 74 | 202 | 4.0 | 8.0 | 0.00 | 0.00 | 0.00 | 88 | 1006.3 |
| 20260831013450 | 74 | 204 | 4.0 | 13.0 | 0.00 | 0.00 | 0.00 | 88 | 1006.1 |
| 20260831012949 | 74 | 219 | 6.0 | 11.0 | 0.00 | 0.00 | 0.00 | 88 | 1006.2 |
| 20260831012444 | 74 | 176 | 4.0 | 7.0 | 0.00 | 0.00 | 0.00 | 88 | 1006.2 |
| 20260831011938 | 74 | 206 | 5.0 | 8.0 | 0.00 | 0.00 | 0.00 | 88 | 1006.1 |
| 20260831011427 | 74 | 199 | 3.0 | 9.0 | 0.00 | 0.00 | 0.00 | 87 | 1006.2 |
| 20260831010923 | 75 | 194 | 4.0 | 9.0 | 0.00 | 0.00 | 0.00 | 86 | 1005.9 |
| 20260831010418 | 75 | 195 | 5.0 | 6.0 | 0.00 | 0.00 | 0.00 | 86 | 1006.0 |
| 20260831005914 | 75 | 164 | 2.0 | 6.0 | 0.00 | 0.00 | 0.00 | 85 | 1006.0 |
| 20260831005409 | 75 | 202 | 3.0 | 6.0 | 0.00 | 0.00 | 0.00 | 85 | 1005.9 |
| 20260831004903 | 75 | 186 | 2.0 | 5.0 | 0.00 | 0.00 | 0.00 | 85 | 1005.9 |
| 20260831004400 | 75 | 213 | 4.0 | 7.0 | 0.00 | 0.00 | 0.00 | 84 | 1006.0 |
| 20260831003855 | 76 | 191 | 3.0 | 7.0 | 0.00 | 0.00 | 0.00 | 83 | 1006.2 |
| 20260831003351 | 76 | 193 | 3.0 | 9.0 | 0.00 | 0.00 | 0.00 | 82 | 1006.0 |
| 20260831002851 | 77 | 207 | 4.0 | 6.0 | 0.00 | 0.00 | 0.00 | 81 | 1006.0 |
| 20260831002350 | 77 | 224 | 6.0 | 8.0 | 0.00 | 0.00 | 0.00 | 80 | 1006.3 |
| 20260831001845 | 77 | 217 | 6.0 | 9.0 | 0.00 | 0.00 | 0.00 | 79 | 1006.0 |
| 20260831001340 | 78 | 208 | 7.0 | 9.0 | 0.00 | 0.00 | 0.00 | 78 | 1006.0 |